KD2SJF Weather Reports


time (UTC)temp
F
wind
direction
speed
knots
gust
knots
rain 1hr
in
rain 24hr
in
rain mn
in
humidity
%
barometer
mb
20260504044551 43 161 0.0 3.5 0.00 0.00 0.00 66 1010.5
20260504043053 43 0 1.7 5.2 0.00 0.00 0.00 64 1010.7
20260504041553 42 0 0.0 1.7 0.00 0.00 0.00 68 1010.9
20260504040106 42 178 0.0 2.6 0.00 0.00 0.00 67 1010.9
20260504034612 41 146 0.0 1.7 0.00 0.00 0.00 68 1010.7
20260504033054 40 0 0.0 1.7 0.00 0.00 0.00 69 1010.8
20260504031552 40 0 0.0 2.6 0.00 0.00 0.00 69 1010.8
20260504030118 39 0 0.0 0.0 0.00 0.00 0.00 72 1010.8
20260504024555 39 0 0.0 1.7 0.00 0.00 0.00 72 1010.9
20260504023046 39 0 0.0 1.7 0.00 0.00 0.00 71 1010.8
20260504021551 39 192 0.9 2.6 0.00 0.00 0.00 70 1010.7
20260504020051 39 0 0.0 2.6 0.00 0.00 0.00 70 1010.7
20260504014600 41 192 0.9 2.6 0.00 0.00 0.00 68 1010.8
20260504013053 41 192 0.0 1.7 0.00 0.00 0.00 67 1010.9
20260504011550 41 0 0.0 1.7 0.00 0.00 0.00 67 1010.7
20260504010053 41 192 0.0 2.6 0.00 0.00 0.00 65 1010.5
20260504004552 43 0 0.0 1.7 0.00 0.00 0.00 61 1010.3
20260504003048 44 192 0.0 3.5 0.00 0.00 0.00 60 1010.2
20260504001600 44 0 1.7 4.3 0.00 0.00 0.00 58 1010.2
20260504000057 45 0 0.0 3.5 0.00 0.00 0.00 57 1010.0
20260503234548 46 229 1.7 7.8 0.00 0.00 0.00 55 1010.0
20260503233051 46 276 2.6 13.0 0.00 0.00 0.00 54 1010.0
20260503231552 47 224 1.7 12.2 0.00 0.00 0.00 52 1010.0
20260503230055 47 142 2.6 6.1 0.00 0.00 0.00 50 1009.7
20260503224552 47 183 0.9 3.5 0.00 0.00 0.00 48 1009.6
20260503223051 47 244 1.7 6.1 0.00 0.00 0.00 45 1009.6
20260503221549 48 217 1.7 7.0 0.00 0.00 0.00 44 1009.5
20260503220054 48 173 0.9 8.7 0.00 0.00 0.00 43 1009.4
20260503214600 48 227 1.7 14.8 0.00 0.00 0.00 40 1009.3
20260503213048 48 272 4.3 11.3 0.00 0.00 0.00 38 1009.3
20260503211549 48 287 3.5 9.6 0.00 0.00 0.00 37 1009.1
20260503210050 49 350 3.5 11.3 0.00 0.00 0.00 34 1009.2
20260503204557 50 236 3.5 13.9 0.00 0.00 0.00 31 1009.1
20260503203055 49 242 5.2 20.9 0.00 0.00 0.00 33 1009.3
20260503201549 48 212 4.3 12.2 0.00 0.00 0.00 33 1009.3
20260503200049 49 282 3.5 13.9 0.00 0.00 0.00 34 1009.3
20260503194550 47 58 4.3 13.9 0.00 0.00 0.00 35 1009.7
20260503193108 47 238 2.6 14.8 0.00 0.00 0.00 36 1009.8
20260503191558 48 295 2.6 11.3 0.00 0.00 0.00 37 1009.9
20260503190100 47 220 3.5 13.9 0.00 0.00 0.00 42 1010.0
20260503184551 45 352 2.6 10.4 0.00 0.00 0.00 39 1010.1
20260503183101 44 280 5.2 10.4 0.00 0.00 0.00 41 1010.3
20260503181548 46 297 5.2 13.9 0.00 0.00 0.00 38 1010.4
20260503180058 46 152 4.3 10.4 0.00 0.00 0.00 41 1010.3
20260503174551 44 336 5.2 15.6 0.00 0.00 0.00 44 1010.4
20260503173111 45 322 2.6 12.2 0.00 0.00 0.00 45 1010.7
20260503171554 44 196 1.7 13.9 0.00 0.00 0.00 47 1011.0
20260503100104 31 236 2.6 7.8 0.00 0.00 0.00 83 1010.6
20260503081550 32 249 1.7 7.8 0.00 0.00 0.00 80 1010.9
20260503071602 33 278 2.6 7.8 0.00 0.00 0.00 79 1010.9